TimeEDT,TemperatureF,Dew PointF,Humidity,Sea Level PressureIn,VisibilityMPH,Wind Direction,Wind SpeedMPH,Gust SpeedMPH,PrecipitationIn,Events,Conditions,WindDirDegrees,DateUTC
12:54 AM,52.0,50.0,93,30.25,10.0,Calm,Calm,-,N/A,,Clear,0,2011-10-06 04:54:00
1:54 AM,50.0,48.0,93,30.25,10.0,Calm,Calm,-,N/A,,Clear,0,2011-10-06 05:54:00
2:54 AM,50.0,46.9,89,30.25,10.0,Calm,Calm,-,N/A,,Clear,0,2011-10-06 06:54:00
3:54 AM,48.9,46.9,93,30.26,10.0,Calm,Calm,-,N/A,,Clear,0,2011-10-06 07:54:00
4:54 AM,48.0,46.0,93,30.27,10.0,Calm,Calm,-,N/A,,Clear,0,2011-10-06 08:54:00
5:54 AM,46.9,45.0,93,30.29,10.0,Calm,Calm,-,N/A,,Clear,0,2011-10-06 09:54:00
6:51 AM,46.4,44.6,93,30.35,2.5,Calm,Calm,-,N/A,,Partly Cloudy,0,2011-10-06 10:51:00
6:54 AM,46.0,44.1,93,30.31,1.5,Calm,Calm,-,N/A,,Partly Cloudy,0,2011-10-06 10:54:00
7:01 AM,44.6,44.6,100,30.35,5.0,Calm,Calm,-,N/A,,Partly Cloudy,0,2011-10-06 11:01:00
7:54 AM,46.0,44.1,93,30.34,10.0,Calm,Calm,-,N/A,,Clear,0,2011-10-06 11:54:00
8:54 AM,50.0,46.9,89,30.35,10.0,Calm,Calm,-,N/A,,Clear,0,2011-10-06 12:54:00
9:54 AM,55.0,51.1,86,30.36,10.0,Calm,Calm,-,N/A,,Clear,0,2011-10-06 13:54:00
11:54 AM,70.0,48.9,47,30.38,-9999.0,North,-9999.0,-,N/A,,Unknown,0,2011-10-06 15:54:00
12:54 PM,70.0,46.9,44,30.37,10.0,South,6.9,-,N/A,,Clear,190,2011-10-06 16:54:00
1:54 PM,70.0,48.0,46,30.35,10.0,South,6.9,-,N/A,,Clear,190,2011-10-06 17:54:00
2:54 PM,72.0,50.0,46,30.33,10.0,South,8.1,-,N/A,,Clear,170,2011-10-06 18:54:00
3:54 PM,72.0,51.1,48,30.33,10.0,South,8.1,-,N/A,,Clear,170,2011-10-06 19:54:00
4:54 PM,71.1,51.1,49,30.33,10.0,SE,5.8,-,N/A,,Clear,130,2011-10-06 20:54:00
5:54 PM,69.1,51.1,53,30.33,10.0,SE,5.8,-,N/A,,Clear,130,2011-10-06 21:54:00
6:54 PM,66.9,51.1,57,30.34,10.0,ESE,4.6,-,N/A,,Clear,120,2011-10-06 22:54:00
7:54 PM,62.1,52.0,70,30.36,10.0,Calm,Calm,-,N/A,,Clear,0,2011-10-06 23:54:00
8:54 PM,57.9,52.0,81,30.38,10.0,Calm,Calm,-,N/A,,Clear,0,2011-10-07 00:54:00
9:54 PM,55.9,52.0,87,30.39,10.0,Calm,Calm,-,N/A,,Clear,0,2011-10-07 01:54:00
10:54 PM,55.0,52.0,89,30.40,10.0,Calm,Calm,-,N/A,,Clear,0,2011-10-07 02:54:00
11:54 PM,53.1,51.1,93,30.36,10.0,Calm,Calm,-,N/A,,Clear,0,2011-10-07 03:54:00